SL-16 DEB, 43354

Orbit data source: Space-Track

SL-16 DEB, 43354 is space debris in LEO originally from a launch on Wed, 04 Sep 1996 UTC launched from the Tyuratam Missile And Space Complex (TTMTR). Debris objects in space refer to the collection of defunct objects orbiting the Earth. Examples of debris include non-operational satellites, rocket bodies, and fragments generated from explosions, collisions, or faulty payload assembly.

Loading next visibility...
Identifier
43354, 1996-051P
Orbit
LEO
Last TLE update
5 days ago
Origin
Manufacturer
Unknown
Mission
Spacecraft
Bus & Motor
Unknown
Mass
Unknown
Launch date (UTC)
1996-09-04 (29 years ago)
Launch vehicle
Unknown
Launch site
Tyuratam Missile And Space Complex (TTMTR)
Object type
Payload
Rocket body
Debris
Shape & HBR
Unknown
Radar Cross Section
Small (<0.1 m²)

Expand to show TLE details & history

TLE from 5 days ago
0 SL-16 DEB
1 43354U 96051P   25182.63147383  .00000311  00000-0  18061-3 0  9997
2 43354  71.1910 317.0252 0094362 282.5912  76.4671 14.13987502598859
Epoch: 2025-07-01T15:09Z
TLE epoch observation values (Epoch: 2025-07-01T15:09:19.338Z)
Latitude
-0.00005°
Longitude
169.77046°
Altitude
832.827 km
Speed
7.445 km/s
True Right ascension
21h 08m 06s
True Declination
0° 00' 00"
Sunlit
Object was in full shadow at epoch
Visualization orbit readout
Latitude
-50.518°
Longitude
4.26614°
Altitude
813.028 km
Speed
7.473 km/s
Apparent Right ascension
09h 09m 52s
Apparent Declination
-46° 10' 08"
Sunlit
Object is in daylight
Visualization observer readout
Local Sidereal Time
20:17:22
Azimuth
232.531° WSW
Elevation
-78.573°
Doppler factor
1
Orbital elements
Apogee altitude
911.812 km
Perigee altitude
775.519 km
Semi-major axis
7,221.803 km
Eccentricity
0.00944
Inclination
71.191°
RAAN
317.0252°
Arg. of periapsis
282.5912°
True anomaly
Unknown
Mean anomaly
76.4671°
Eccentric anomaly
Unknown
Mean motion
3.53651 °/min
Orbital period
101.8 mins
BSTAR
0.00018061
Loading maneuver chart data...
Loading SW <> Apogee altitude chart data...
Loading historical data...
Loading historical data...
Loading historical data...
Loading historical data...
Loading historical data...
Loading historical data...
Loading historical data...

SL-16 DEB Visibility forecast

Observer location: undefined°, undefined°

Span
Click to sort rows by Start time (UTC) header in descending order
Start Az.
Max El. time (UTC)
Max El. Az.
Max El.
End time (UTC)
End Az.
10 mins2025-07-06 09:01:33.859Z177.978° S2025-07-06 09:06:33.859Z93.615° ESE37.579°2025-07-06 09:11:33.859Z33.794° NE
7 mins2025-07-06 10:47:33.859Z264.139° W2025-07-06 10:50:33.859Z304.645° NW23.11°2025-07-06 10:54:33.859Z354.058° N
8 mins2025-07-06 17:57:33.859Z9.157° NNE2025-07-06 18:01:33.859Z59.353° ENE21.914°2025-07-06 18:05:33.859Z104.427° ESE
9 mins2025-07-06 19:41:33.859Z323.695° NNW2025-07-06 19:45:33.859Z258.102° W39.504°2025-07-06 19:50:33.859Z178.286° S
|